Regional Weather Roundup
Issued by NWS

Home | Current Version | Previous Version | Graphics & Text | Print | Product List | Glossary On
Versions: 1 2 3 4 5 6 7 8 9 10 11 12 13 14 15 16 17 18 19 20 21 22 23 24 25 26 27 28 29 30 31 32 33 34 35 36 37 38 39 40 41 42 43 44 45 46 47 48 49 50
000
ASUS45 KPSR 041310
RWRAZ

ARIZONA HOURLY REGIONAL WEATHER ROUNDUP
NATIONAL WEATHER SERVICE PHOENIX AZ
600 AM MST SAT JUL 04 2015

NOTE: FAIR INDICATES FEW OR NO CLOUDS BELOW 12,000 FEET WITH NO
SIGNIFICANT WEATHER AND/OR OBSTRUCTIONS TO VISIBILITY.

AZZ001>003-036-041400-
NORTHWEST ARIZONA

CITY           SKY/WX    TMP DP  RH WIND       PRES   REMARKS
BULLHEAD CITY  CLOUDY    93  55  27 E5        29.74R
KINGMAN        CLOUDY    80  53  39 SE7       29.95R
$$

AZZ004>008-015-016-018-041400-
NORTH CENTRAL ARIZONA

CITY           SKY/WX    TMP DP  RH WIND       PRES   REMARKS
GRAND CANYON   CLOUDY    59  57  93 NE5       30.19S
WILLIAMS       CLOUDY    61  54  77 S6        30.27R
PRESCOTT       MOCLDY    68  58  70 CALM      30.08R
FLAGSTAFF      CLOUDY    57  57 100 NE5       30.24R
PAYSON         PTCLDY    66  55  68 CALM      30.11R
PAGE           MOCLDY    77  57  50 CALM      30.02R
$$

AZZ009>014-017-041400-
NORTHEAST ARIZONA

CITY           SKY/WX    TMP DP  RH WIND       PRES   REMARKS
WINSLOW        CLOUDY    68  64  87 CALM      30.11R
SAINT JOHNS    CLOUDY    65  61  87 S6        30.14R
WINDOW ROCK    MOCLDY    59  54  83 CALM      30.23R
SHOW LOW       CLOUDY    57  57 100 CALM      30.20R
$$

AZZ023-041400-
GREATER PHOENIX AREA

CITY           SKY/WX    TMP DP  RH WIND       PRES   REMARKS
PHOENIX        MOCLDY    85  64  49 CALM      29.77R
BUCKEYE          N/A     81  63  54 NE3       29.78R
LUKE AFB       PTCLDY    82  63  51 NW3       29.76R
DEER VALLEY    PTCLDY    81  63  54 N10       29.79R
SCOTTSDALE     PTCLDY    82  66  58 W5        29.81R
MESA-FALCON    MOCLDY    84  61  45 N12       29.79
MESA-GATEWAY   PTCLDY    79  66  65 MISG      29.82R
CHANDLER       MOCLDY    81  68  65 CALM      29.79
$$

AZZ027-028-041400-
SOUTHWEST MARICOPA COUNTY AND PINAL COUNTY

CITY           SKY/WX    TMP DP  RH WIND       PRES   REMARKS
CASA GRANDE    CLOUDY    79  63  57 CALM      29.79R
GILA BEND      FAIR      84  60  43 S8        29.74R
$$

AZZ503-504-507>509-041400-
SOUTHEAST ARIZONA

CITY           SKY/WX    TMP DP  RH WIND       PRES   REMARKS
TUCSON         MOCLDY    82  56  40 SE8       29.92R
DAVIS-MONTHAN  MOCLDY    82  56  41 SE9       29.91R
RYAN FIELD     CLEAR     81  55  41 E5        29.90
NOGALES        CLOUDY    74  62  66 S20G28    30.05R
SIERRA VISTA   CLOUDY    73  60  64 SE12      30.10R
DOUGLAS        LGT RAIN  66  63  90 SW3       30.07S
SAFFORD        MOCLDY    77  60  55 E8        29.95R
$$

AZZ020-021-025-026-031-041400-
SOUTHWEST ARIZONA

CITY           SKY/WX    TMP DP  RH WIND       PRES   REMARKS
YUMA           MOCLDY    87  63  44 SW8       29.70R
$$

CAZ031-033-041-043-047-048-061-041400-
SOUTHERN CALIFORNIA

CITY           SKY/WX    TMP DP  RH WIND       PRES   REMARKS
DOWNTOWN L.A.  CLOUDY    65  59  81 CALM      29.88R
L.A. AIRPORT   CLOUDY    63  60  90 SE5       29.89R
SAN DIEGO      CLOUDY    68  60  75 NW6       29.89R
BURBANK        CLEAR     64  58  80 CALM      29.88R
ONTARIO        PTCLDY    63  57  81 SW3       29.88S
RIVERSIDE      CLEAR     64  59  83 CALM      29.89R
PALM SPRINGS   CLEAR     85  55  35 CALM      29.73S
EL CENTRO NAS  PTCLDY    84  50  30 SW6       29.69S
IMPERIAL       PTCLDY    83  54  36 W3        29.67R
BLYTHE         CLOUDY    85  57  38 N7        29.70R
NEEDLES        CLOUDY    93  50  23 W3        29.75R
$$

NVZ020-UTZ003-041400-
SOUTHERN NEVADA-UTAH

CITY           SKY/WX    TMP DP  RH WIND       PRES   REMARKS
LAS VEGAS      CLOUDY    94  35  12 SW10      29.78R
SALT LAKE CITY CLOUDY    83  49  30 E6        29.92R
$$

NMZ009-TXZ055-041400-
NEW MEXICO-WEST TEXAS

CITY           SKY/WX    TMP DP  RH WIND       PRES   REMARKS
ALBUQUERQUE    PTSUNNY   71  56  58 N8        30.16R
EL PASO        MOCLDY    78  60  53 E6        30.04R
$$


........................KEY........................
SKY/WX - SKY CONDITION/WEATHER
TMP    - TEMPERATURE IN FAHRENHEIT
DP     - DEW POINT IN FAHRENHEIT
RH     - RELATIVE HUMIDITY IN PERCENT
WIND   - DIRECTION AND SPEED IN MILES PER HOUR (MPH)
VRB    - VARIABLE WIND DIRECTION
PRES   - MEAN SEA LEVEL PRESSURE IN INCHES OF MERCURY
         F - FALLING PRESSURE   R - RISING PRESSURE
         S - STEADY PRESSURE
VSB    - VISIBILITY IN MILES
HX     - HEAT INDEX IN FAHRENHEIT
WCI    - WIND CHILL INDEX IN FAHRENHEIT
TC     - TEMPERATURE IN CELSIUS WHICH IS ALSO KNOWN AS
         TEMPERATURE IN CENTIGRADE
AFB    - AIR FORCE BASE
         LUKE AFB IS LUKE AIR FORCE BASE
         DAVIS-MONTHAN IS DAVIS-MONTHAN AIR FORCE BASE
NAS    - NAVAL AIR STATION
         EL CENTRO NAS IS EL CENTRO NAVAL AIR STATION
N/A    - NOT AVAILABLE



USA.gov is the U.S. government's official web portal to all federal, state and local government web resources and services.